"Pseudo-MPEC" for P115YcM

Created 2020 Sep 18 11:07:29 UT using Find_Orb

Click here for an explanation of pseudo-MPECs

 
 Astrometry: 
     P115YcM  C2020 09 14_kn=dUp!_8kp]=S0?+0YxRFkpoPty5?q]7[8-7wy\:I@1V*P;nc9F51
     P115YcM  C2020 09 14F/_p$5jXJd)-!?ybVv;8jd2!@p+Astrometry[enNe#g\\nDwgEfF51
     P115YcM  C2020 09 14-L=H?af+=,HAA=p,t]B0:I$tmbmr(TEEW-CIJPKLKlCASYuNsxSGF51
     P115YcM  C2020 09 15F//9[8mZ7$xDHHRMO#trE'6X?+!LR!5b:pTaQkf)jh+8@3ACa:BhF51
     P115YcM  C2020 09 15*j#_EO8FdT:5.V@yBIC0U6*hWMOqJq$a%da/VaM0bX(qT,;aQH).F51
     P115YcM  C2020 09 15O2Zy)6XDoB+$xGRbIn'QQ5]lSxw!',*m@^vVtK8ZPj'\RP*21[cFF51
     P115YcM  C2020 09 15r0yp-TQm^D3v@redacted;i8;;PuEtV[L,e^=!=s2pD?$u3@9`jQF51
     P115YcM  C2020 09 16U_\**V`click?)F*A=_C4YU*#O.xbKrbd3,oBkQMO.gnkhSf+80@F51
     P115YcM  C2020 09 16K?$(ng[08SshereVfYK/%W6T?W#0E0P+H`%t]tJ]+bkXrWkx@pUVF51
     P115YcM  C2020 09 16%N4\83lhr:Owh/[E]_(BHMt+FrK'\uUJWG]I60de-RNBw1(ZT*-.F52
     P115YcM  C2020 09 16XlT+rKfTFvX$CoMY%kxgxLcO^k/8Oq.=Um5YCUU*yK2XP#Wq!)[QF52
     P115YcM  C2020 09 16A:3Ve4)i1rIjpOFK4yvFW'IhR%L30m:$[JjohM8SyawojwA$vq$.F51
     P115YcM  C2020 09 16R(v+-rqJ2u+6?Xl8elSc;w`\V7.ZE:buEIRrt^p-u5-S\y?(,\C]F52
     P115YcM  C2020 09 16v93hN2(jb(n:h^^I3N0g0c`8Iv5,r;,]Nr@r4HfNUD:mGNA1o+t/F52
     P115YcM  C2020 09 17ww+3^#(^c@f6`^JbKSdZw$ME,IV!.+d,\os@M!$6uDL[]QCb*aB'F52
     P115YcM  C2020 09 17@ILr7('vlgXb`y5;W%7,r_]pGAWCHwl)$e@,Fpx3N:sM)4_/K;;xF52
     P115YcM  C2020 09 17Rn!s%Du#jX'UxgUHforehwZa$cPcrU$gSX?!3l'1B^?1y,g!K/x+F52
     P115YcM  C2020 09 17qWo!@AVy/d1(?yOdq^fq#RJcsL5explanation(J@S'i.1eUt)@HF51
     P115YcM  C2020 09 17?Q#*HaJ@?VD()pq2A8?'NXlm3fv.CxMt!1w=6q\l;v26b-([cc/BF51
     P115YcM  C2020 09 170/vR=?+En,Vk#F991XiCH+**fnGP6W,ET_csj.APf.e(GX:%!7'`F51
     P115YcM  C2020 09 17BeL63jcKDHhrlP9vI*hbRF1!:ma6XgkD,\-1ZUR!PFQS\AhhgkSBF51

Station data:
(F51) Pan-STARRS 1, Haleakala  (N20.707235 W156.255910)  US/Hawaii.
   Observers N. Primak, A. Schultz, S. Watters, J. Thiel, T. Goggia. Measurer
   PS1 Science Consortium. 1.8-m Ritchey-Chrétien + CCD.
(F52) Pan-STARRS 2, Haleakala  (N20.707384 W156.255910)  US/Hawaii. 1.8-m
   Ritchey-Chrétien + CCD.

Orbital elements:  P115YcM
   Perihelion 2020 Sep 29.560899 +/- 0.086 TT = 13:27:41 (JD 2459122.060899)
Epoch 2020 Sep 17.0 TT = JDT 2459109.5   Earth MOID: 0.2005   AutoNEOCP
M 356.17135612 +/- 0.06             (J2000 ecliptic)
n   0.30480651 +/- 0.00362          Peri.  197.21517 +/- 0.08
a   2.18668664 +/- 0.0173           Node   170.27979 +/- 0.013
e   0.4519335 +/- 0.00371           Incl.    9.68560 +/- 0.059
P   3.23                   H 24.7   G  0.15   U  9.0  
q 1.19844964 +/- 0.00137    Q 3.17492364 +/- 0.0328
From 21 observations 2020 Sept. 14-17; mean residual 0".22
Residuals in arcseconds: 
200914 F51  .11+  .01+    200916 F51  .15+  .02-    200917 F52  .41-  .44+    
200914 F51  .14-  .11+    200916 F51  .00   .00     200917 F52  .20+  .06-    
200914 F51  .12-  .28-    200916 F52  .18-  .65+    200917 F52  .19-  .12+    
200915 F51  .37-  .12+    200916 F52  .34+  .05+    200917 F51  .06+  .10-    
200915 F51  .15+  .13-    200916 F51  .24+  .01+    200917 F51  .00   .55-    
200915 F51  .12+  .07+    200916 F52  .15-  .11+    200917 F51  .21+  .08-    
200915 F51  .01+  .19-    200916 F52  .23+  .27-    200917 F51  .22-  .06-    

Ephemerides (geocentric):
Date (UTC) HH   RA              Dec         delta   r     elong  mag " sig PA
---- -- -- --  -------------   -----------  ------ ------ -----  --- ---- ---
2020 09 18 11  00 32 19.140   -04 19 05.56  .20329 1.2042 167.7 22.3 .200 115
2020 09 18 12  00 32 26.992   -04 20 43.77  .20327 1.2041 167.7 22.3 .210 117
2020 09 18 13  00 32 34.842   -04 22 21.99  .20324 1.2041 167.7 22.3 .221 118
2020 09 18 14  00 32 42.693   -04 24 00.22  .20321 1.2040 167.7 22.3 .232 119
2020 09 18 15  00 32 50.543   -04 25 38.47  .20318 1.2040 167.7 22.3 .243 120
2020 09 18 16  00 32 58.394   -04 27 16.73  .20315 1.2040 167.7 22.3 .254 121
2020 09 18 17  00 33 06.243   -04 28 54.99  .20313 1.2039 167.7 22.3 .265 122
2020 09 18 18  00 33 14.093   -04 30 33.27  .20310 1.2039 167.7 22.3 .277 123
2020 09 18 19  00 33 21.942   -04 32 11.56  .20307 1.2038 167.7 22.3 .289 124
2020 09 18 20  00 33 29.791   -04 33 49.86  .20305 1.2038 167.7 22.3 .301 125
2020 09 18 21  00 33 37.640   -04 35 28.16  .20302 1.2037 167.7 22.3 .313 125
2020 09 18 22  00 33 45.488   -04 37 06.48  .20299 1.2037 167.7 22.3 .326 126
2020 09 18 23  00 33 53.336   -04 38 44.80  .20297 1.2037 167.7 22.3 .339 127
2020 09 19 00  00 34 01.183   -04 40 23.13  .20294 1.2036 167.6 22.3 .352 127
2020 09 19 01  00 34 09.030   -04 42 01.47  .20292 1.2036 167.6 22.3 .365 128
2020 09 19 02  00 34 16.877   -04 43 39.81  .20289 1.2035 167.6 22.3 .379 128
2020 09 19 03  00 34 24.723   -04 45 18.16  .20287 1.2035 167.6 22.3 .392 129
2020 09 19 04  00 34 32.569   -04 46 56.52  .20284 1.2035 167.6 22.3 .406 129
2020 09 19 05  00 34 40.414   -04 48 34.88  .20282 1.2034 167.6 22.3 .420 130
2020 09 19 06  00 34 48.259   -04 50 13.25  .20280 1.2034 167.6 22.3 .434 130
2020 09 19 07  00 34 56.104   -04 51 51.62  .20277 1.2033 167.6 22.3 .448 131
2020 09 19 08  00 35 03.948   -04 53 29.99  .20275 1.2033 167.6 22.3 .463 131
2020 09 19 09  00 35 11.791   -04 55 08.37  .20272 1.2033 167.6 22.3 .478 131
2020 09 19 10  00 35 19.634   -04 56 46.75  .20270 1.2032 167.6 22.3 .493 132
2020 09 19 11  00 35 27.477   -04 58 25.13  .20268 1.2032 167.6 22.3 .508 132
2020 09 19 12  00 35 35.319   -05 00 03.51  .20266 1.2031 167.6 22.3 .523 132
2020 09 19 13  00 35 43.160   -05 01 41.90  .20264 1.2031 167.5 22.3 .539 133
2020 09 19 14  00 35 51.001   -05 03 20.29  .20261 1.2031 167.5 22.3 .554 133
2020 09 19 15  00 35 58.841   -05 04 58.68  .20259 1.2030 167.5 22.3 .570 133
2020 09 19 16  00 36 06.680   -05 06 37.06  .20257 1.2030 167.5 22.3 .586 133
2020 09 19 17  00 36 14.519   -05 08 15.45  .20255 1.2030 167.5 22.3 .602 134
2020 09 19 18  00 36 22.358   -05 09 53.84  .20253 1.2029 167.5 22.3 .619 134
2020 09 19 19  00 36 30.195   -05 11 32.22  .20251 1.2029 167.5 22.3 .635 134
2020 09 19 20  00 36 38.032   -05 13 10.61  .20249 1.2028 167.5 22.3 .652 134
2020 09 19 21  00 36 45.869   -05 14 48.99  .20247 1.2028 167.5 22.3 .669 135
2020 09 19 22  00 36 53.704   -05 16 27.37  .20245 1.2028 167.5 22.3 .686 135
2020 09 19 23  00 37 01.539   -05 18 05.75  .20243 1.2027 167.5 22.3 .703 135
2020 09 20 00  00 37 09.374   -05 19 44.12  .20241 1.2027 167.4 22.3 .720 135
2020 09 20 01  00 37 17.207   -05 21 22.49  .20239 1.2027 167.4 22.3 .738 135
2020 09 20 02  00 37 25.040   -05 23 00.85  .20237 1.2026 167.4 22.3 .755 135
2020 09 20 03  00 37 32.872   -05 24 39.21  .20235 1.2026 167.4 22.3 .773 136
2020 09 20 04  00 37 40.704   -05 26 17.57  .20234 1.2025 167.4 22.3 .791 136
2020 09 20 05  00 37 48.534   -05 27 55.91  .20232 1.2025 167.4 22.3 .810 136
2020 09 20 06  00 37 56.364   -05 29 34.26  .20230 1.2025 167.4 22.3 .828 136
2020 09 20 07  00 38 04.193   -05 31 12.59  .20228 1.2024 167.4 22.3 .846 136
2020 09 20 08  00 38 12.021   -05 32 50.92  .20227 1.2024 167.4 22.3 .865 136
2020 09 20 09  00 38 19.848   -05 34 29.24  .20225 1.2024 167.3 22.3 .884 136
2020 09 20 10  00 38 27.675   -05 36 07.55  .20223 1.2023 167.3 22.3 .903 136